Погода в Гагарине

Узбекистан     40°39′48″N   68°10′05″E
темп.,
°C
ветер,
м/с
пор.,
м/с
влажн.,
%
обл.,
%
осадки,
мм/ч
давл.,
гПа
погр.,
м
6 марта, сб
сб623:00+7св355255 0.0 1021140
02:00+7ссв3358100 0.0 101877
05:00+6св345297 0.0 101668
08:00+7св3544100 0.0 1014108
11:00+12зсз3435100 0.0 1013394
14:00+12сз4535100 0.0 1012455
17:00+12с4537100 0.0 1012500
20:00+9с1356100 0.6 1015196
7 марта, вс
вс723:00+9ссв1164100 1.0 1017190
02:00+8юв3573100 0.2 1017299
05:00+7ююз31078100 0.2 1019788
08:00+6сз3580100 0.1 1021358
11:00+8сз227098 0.1 1021687
14:00+10зсз1162100 0.0 1020849
17:00+11юв225884 0.0 1019966
20:00+9вюв236790 0.0 101972
8 марта, пн
пн823:00+8юв237545 0.0 101946
02:00+7ю237834 0.0 101846
05:00+7ююв237842 0.0 101946
08:00+7юв127699 0.0 102181
11:00+12ююв125599 0.0 1020417
14:00+15ссз1143100 0.0 1019910
17:00+16в2241100 0.0 1019813
20:00+13всв235482 0.0 102025
9 марта, вт
вт923:00+11всв236084 0.0 102032
02:00+10в236590 0.0 101833
05:00+9в236681 0.0 101733
08:00+10в2363100 0.0 101564
11:00+16юв4940100 0.0 1013699
14:00+19вюв6932100 0.0 1010835
17:00+19в3633100 0.0 1009538
20:00+17ююв5933100 0.0 1010217
10 марта, ср
ср1023:00+15юв2239100 0.0 101144
02:00+13вюв51050100 0.0 1009224
05:00+12юв2356100 0.1 101052
08:00+13з5125698 0.3 1012576
11:00+14сз794499 0.3 10151200
14:00+9зсз477898 2.6 1018587
17:00+13юз254892 2.6 10201348
20:00+10ссз366131 0.1 1023311